Regional Weather Roundup
Issued by NWS

Home | Current Version | Previous Version | Text Only | Print | Product List | Glossary Off
Versions: 1 2 3 4 5 6 7 8 9 10 11 12 13 14 15 16 17 18 19 20 21 22 23 24 25 26 27 28 29 30 31 32 33 34 35 36 37 38 39 40 41 42 43 44 45 46 47 48 49 50

000
ASUS44 KMEG 280600
RWRTN
TENNESSEE HOURLY STATE WEATHER ROUNDUP
NATIONAL WEATHER SERVICE MEMPHIS TN
1200 AM CST SUN DEC 28 2014

TNZ002-004-019-021-049-052-054-088>092-280700-
WEST TENNESSEE

CITY           SKY/WX    TMP DP  RH WIND       PRES   REMARKS
MEMPHIS INTL   LGT RAIN  48  45  89 NW10      30.12R
NWS MEMPHIS      N/A     47 N/A N/A MISG        N/A
JACKSON        CLOUDY    48  45  89 E7        30.09F
DYERSBURG      CLOUDY    43  30  61 N10G17    30.15F
UNION CITY     CLOUDY    39  39 100 N13       30.12S WCI  32
PARIS          CLOUDY    43  43 100 CALM      30.10R
LEXINGTON      CLOUDY    48  48 100 N5        30.08F
SAVANNAH       CLOUDY    52  52 100 CALM      30.09S
$$

TNZ008-025-027-028-033-062-065-066-280700-
NORTH MIDDLE TENNESSEE

CITY           SKY/WX    TMP DP  RH WIND       PRES   REMARKS
NASHVILLE      LGT RAIN  50  49  96 CALM      30.10S FOG
CLARKSVILLE    LGT RAIN  46  44  93 CALM      30.10F FOG
CROSSVILLE     CLOUDY    51  47  86 VRB3      30.08F
$$

TNZ061-075-076-078-094-096-097-280700-
SOUTH MIDDLE TENNESSEE

CITY           SKY/WX    TMP DP  RH WIND       PRES   REMARKS
TULLAHOMA      CLOUDY    52  50  93 SW6       30.08S
WINCHESTER     MOCLDY    55  52  88 S10       30.08R
SHELBYVILLE    CLOUDY    52  52 100 NW6       30.09R
$$

TNZ017-018-042-046-047-280700-
NORTHEAST TENNESSEE

CITY           SKY/WX    TMP DP  RH WIND       PRES   REMARKS
TRI CITIES     CLOUDY    45  41  86 SW5       30.10F
ELIZABETHTON   PTCLDY    46  32  57 CALM      30.08F
$$

TNZ012-013-036-069-073-074-280700-
CENTRAL EAST TENNESSEE

CITY           SKY/WX    TMP DP  RH WIND       PRES   REMARKS
KNOXVILLE      LGT RAIN  48  43  82 CALM      30.10F
OAK RIDGE      CLOUDY    48  46  93 CALM      30.11F
GATLINBURG     CLOUDY    45  39  81 CALM      30.10F
$$

TNZ083-085-099-280700-
SOUTHEAST TENNESSEE

CITY           SKY/WX    TMP DP  RH WIND       PRES   REMARKS
CHATTANOOGA    LGT RAIN  52  50  93 VRB6      30.11F
$$

SKY/WX REPORTED AS FAIR MEANS FEW OR NO CLOUDS BELOW
12 THOUSAND FEET.



USA.gov is the U.S. government's official web portal to all federal, state and local government web resources and services.